GW5159 Weather Reports


time (UTC)temp
F
wind
direction
speed
knots
gust
knots
rain 1hr
in
rain 24hr
in
rain mn
in
humidity
%
barometer
mb
20260507060945 0 348 3.5 6.1 0.00 0.00 0.00 1010.4
20260507060442 0 320 3.5 5.2 0.00 0.00 0.00 1010.6
20260507055938 0 336 1.7 5.2 0.00 0.00 0.00 1010.4
20260507055434 0 276 0.0 1.7 0.00 0.00 0.00 1010.5
20260507054931 0 353 1.7 2.6 0.00 0.00 0.00 1010.4
20260507054427 0 321 5.2 7.0 0.00 0.00 0.00 1010.5
20260507053924 0 323 3.5 5.2 0.00 0.00 0.00 1010.5
20260507053422 0 322 2.6 5.2 0.00 0.00 0.00 1010.5
20260507052920 0 317 4.3 5.2 0.00 0.00 0.00 1010.7
20260507052417 0 340 4.3 7.8 0.00 0.00 0.00 1010.6
20260507051914 0 345 7.0 8.7 0.00 0.00 0.00 1010.5
20260507051412 0 309 5.2 13.9 0.00 0.00 0.00 1010.5
20260507050909 0 317 7.0 7.8 0.00 0.00 0.00 1010.3
20260507050405 0 299 5.2 9.6 0.00 0.00 0.00 1010.4
20260507045902 0 312 4.3 9.6 0.00 0.00 0.00 1010.4
20260507045359 0 348 6.1 9.6 0.00 0.00 0.00 1010.2
20260507044856 0 306 11.3 13.0 0.00 0.00 0.00 1010.4
20260507044352 0 316 5.2 9.6 0.00 0.00 0.00 1010.3
20260507043848 0 303 7.8 11.3 0.00 0.00 0.00 1010.5
20260507043345 0 308 6.1 7.8 0.00 0.00 0.00 1010.2
20260507042841 0 317 6.1 7.8 0.00 0.00 0.00 1010.2
20260507042337 0 305 5.2 6.1 0.00 0.00 0.00 1010.2
20260507041834 0 330 3.5 6.1 0.00 0.00 0.00 1010.1
20260507041331 0 335 4.3 7.8 0.00 0.00 0.00 1009.8
20260507040828 0 339 2.6 5.2 0.00 0.00 0.00 1009.6
20260507040324 0 307 5.2 6.1 0.00 0.00 0.00 1009.8
20260507035820 0 358 2.6 7.0 0.00 0.43 0.43 1009.5
20260507035315 0 230 0.0 0.9 0.00 0.43 0.43 1009.6
20260507034814 0 266 0.0 0.9 0.00 0.43 0.43 1009.7
20260507034310 0 97 0.9 0.9 0.00 0.43 0.43 1009.6
20260507033809 0 98 0.0 0.0 0.00 0.43 0.43 1009.5
20260507033306 0 98 0.0 0.0 0.00 0.43 0.43 1009.6
20260507032803 0 98 0.0 0.0 0.00 0.43 0.43 1009.9
20260507032258 0 98 0.0 0.0 0.00 0.43 0.43 1009.8
20260507031755 0 98 0.0 0.0 0.00 0.43 0.43 1009.8
20260507031252 0 98 0.0 0.0 0.00 0.43 0.43 1009.8
20260507030749 0 98 0.0 0.0 0.00 0.43 0.43 1009.8
20260507030246 0 53 1.7 1.7 0.00 0.43 0.43 1009.8
20260507025743 0 303 0.0 0.0 0.00 0.43 0.43 1009.9
20260507025240 0 302 0.9 0.9 0.00 0.43 0.43 1010.1
20260507024739 0 281 0.9 2.6 0.00 0.43 0.43 1010.0
20260507024235 0 257 0.0 0.0 0.00 0.43 0.43 1009.8
20260507023731 0 257 0.0 0.0 0.00 0.43 0.43 1009.8
20260507023228 0 90 0.0 0.0 0.00 0.43 0.43 1009.8
20260507022726 0 48 0.0 0.9 0.00 0.43 0.43 1009.7
20260507022221 0 303 0.9 0.9 0.00 0.43 0.43 1009.8
20260507021718 0 189 0.0 0.9 0.00 0.43 0.43 1010.1
20260507021213 0 109 0.0 0.0 0.00 0.43 0.43 1009.9
20260507020712 0 109 0.0 0.0 0.00 0.43 0.43 1009.9
20260507020208 0 108 0.0 0.0 0.00 0.43 0.43 1009.9
20260507015706 0 129 0.0 0.0 0.00 0.43 0.43 1010.2
20260507015203 0 114 0.0 0.9 0.00 0.43 0.43 1010.1
20260507014659 0 188 0.0 0.0 0.00 0.43 0.43 1010.2
20260507014155 0 237 0.0 0.9 0.00 0.43 0.43 1010.3
20260507013652 0 250 0.0 0.0 0.00 0.43 0.43 1010.1
20260507013149 0 310 0.0 0.0 0.00 0.43 0.43 1009.9
20260507012647 0 310 0.0 0.0 0.00 0.43 0.43 1010.0
20260507012142 0 310 0.0 0.0 0.00 0.43 0.43 1010.1
20260507011641 0 310 0.0 0.0 0.00 0.43 0.43 1010.1
20260507011136 0 310 0.0 0.0 0.00 0.43 0.43 1010.0
20260507010631 0 310 0.0 0.9 0.00 0.43 0.43 1009.9
20260507010128 0 310 0.0 0.9 0.00 0.43 0.43 1010.0
20260507005625 0 307 0.0 0.9 0.00 0.43 0.43 1009.8
20260507005121 0 296 0.9 1.7 0.00 0.43 0.43 1010.0
20260507004618 0 279 0.9 1.7 0.00 0.43 0.43 1009.9
20260507004116 0 297 0.9 0.9 0.00 0.43 0.43 1009.7
20260507003612 0 313 0.9 1.7 0.00 0.43 0.43 1009.5
20260507003107 0 305 0.9 0.9 0.00 0.43 0.43 1009.5
20260507002604 0 311 1.7 2.6 0.00 0.43 0.43 1009.8
20260507002059 0 308 0.9 1.7 0.00 0.43 0.43 1009.5
20260507001556 0 249 0.9 2.6 0.00 0.43 0.43 1009.5
20260507001054 0 319 2.6 2.6 0.00 0.43 0.43 1009.7
20260507000549 0 324 3.5 3.5 0.00 0.43 0.43 1009.6
20260507000045 0 297 2.6 3.5 0.00 0.43 0.43 1009.4
20260506235543 0 347 1.7 2.6 0.00 0.43 0.43 1009.5
20260506235038 0 318 1.7 3.5 0.00 0.43 0.43 1009.5
20260506234536 0 318 1.7 2.6 0.00 0.43 0.43 1009.3
20260506234033 0 290 1.7 3.5 0.00 0.43 0.43 1009.3
20260506233530 0 272 2.6 5.2 0.00 0.43 0.43 1009.2
20260506233027 0 273 2.6 2.6 0.00 0.43 0.43 1008.9
20260506232523 0 266 0.9 1.7 0.00 0.43 0.43 1008.6
20260506232018 0 270 0.0 0.9 0.00 0.43 0.43 1008.8
20260506231516 0 266 0.9 0.9 0.00 0.43 0.43 1008.5
20260506231014 0 286 0.9 1.7 0.00 0.43 0.43 1008.5
20260506230510 0 246 0.0 0.9 0.00 0.43 0.43 1008.8
20260506230008 0 309 0.9 1.7 0.00 0.43 0.43 1008.5
20260506225504 0 305 2.6 3.5 0.00 0.43 0.43 1008.4
20260506225000 0 326 1.7 3.5 0.00 0.43 0.43 1008.4
20260506224457 0 294 2.6 2.6 0.00 0.43 0.43 1008.3
20260506223954 0 294 2.6 3.5 0.00 0.43 0.43 1008.4
20260506223450 0 317 4.3 6.1 0.00 0.43 0.43 1008.4
20260506222947 0 291 5.2 6.1 0.00 0.43 0.43 1008.8
20260506222444 0 312 5.2 6.1 0.00 0.43 0.43 1008.9
20260506221940 0 315 1.7 2.6 0.00 0.43 0.43 1008.8
20260506221437 0 311 3.5 3.5 0.00 0.43 0.43 1008.5
20260506220935 0 278 0.9 1.7 0.00 0.43 0.43 1008.3
20260506220431 0 306 1.7 2.6 0.00 0.43 0.43 1008.3
20260506215927 0 328 1.7 2.6 0.00 0.43 0.43 1008.3
20260506215423 0 309 1.7 2.6 0.00 0.43 0.43 1008.4
20260506214919 0 321 1.7 2.6 0.00 0.43 0.43 1008.6
20260506214417 0 347 1.7 6.1 0.00 0.43 0.43 1008.4
20260506213914 0 316 3.5 6.1 0.00 0.43 0.43 1008.4
20260506213412 0 329 2.6 2.6 0.00 0.43 0.43 1008.3
20260506212909 0 320 3.5 3.5 0.00 0.43 0.43 1008.3
20260506212405 0 295 2.6 3.5 0.00 0.43 0.43 1008.1
20260506211859 0 322 2.6 7.0 0.00 0.43 0.43 1008.2
20260506211356 0 309 5.2 7.8 0.00 0.43 0.43 1008.3
20260506210853 0 317 5.2 7.8 0.00 0.43 0.43 1008.2
20260506210350 0 317 7.8 8.7 0.00 0.43 0.43 1008.1
20260506205847 0 331 9.6 11.3 0.00 0.43 0.43 1008.0
20260506205343 0 306 6.1 8.7 0.00 0.43 0.43 1007.9
20260506204840 0 331 6.1 7.8 0.00 0.43 0.43 1007.8
20260506204337 0 342 5.2 7.8 0.00 0.43 0.43 1007.8
20260506203835 0 298 5.2 8.7 0.00 0.43 0.43 1007.7
20260506203332 0 314 7.8 9.6 0.00 0.43 0.43 1007.8
20260506202828 0 322 6.1 9.6 0.00 0.43 0.43 1007.7
20260506202326 0 326 7.0 11.3 0.00 0.43 0.43 1007.6
20260506201822 0 314 7.0 11.3 0.00 0.43 0.43 1007.6
20260506201320 0 324 4.3 7.8 0.00 0.43 0.43 1007.5
20260506200816 0 299 5.2 8.7 0.00 0.43 0.43 1007.5
20260506200312 0 298 3.5 8.7 0.00 0.43 0.43 1007.4
20260506195808 0 339 4.3 5.2 0.00 0.43 0.43 1007.3
20260506195306 0 324 7.0 9.6 0.00 0.43 0.43 1007.4
20260506194803 0 332 5.2 9.6 0.00 0.43 0.43 1007.1
20260506194259 0 342 3.5 6.1 0.00 0.43 0.43 1007.2
20260506193757 0 339 3.5 7.8 0.00 0.43 0.43 1007.2
20260506193253 0 330 3.5 8.7 0.00 0.43 0.43 1007.2
20260506192750 0 312 4.3 8.7 0.00 0.43 0.43 1007.1
20260506192247 0 347 3.5 7.0 0.05 0.43 0.43 1007.1
20260506191743 0 315 3.5 3.5 0.05 0.43 0.43 1007.1
20260506191240 0 5 1.7 3.5 0.00 0.42 0.42 1007.1
20260506190737 0 312 7.0 11.3 0.00 0.42 0.42 1006.9
20260506190233 0 324 3.5 8.7 0.00 0.42 0.42 1007.1
20260506185731 0 327 7.0 8.7 0.00 0.42 0.42 1007.1
20260506185227 0 312 7.8 9.6 0.00 0.42 0.42 1007.1
20260506184725 0 333 6.1 7.0 0.00 0.42 0.42 1007.0
20260506184222 0 329 5.2 7.8 0.00 0.42 0.42 1006.7
20260506183719 0 307 4.3 7.8 0.00 0.42 0.42 1006.5
20260506183214 0 348 2.6 7.0 0.00 0.42 0.42 1006.6
20260506182712 0 300 6.1 9.6 0.00 0.42 0.42 1006.5
20260506182209 0 331 7.0 8.7 0.00 0.42 0.42 1006.6
20260506181706 0 318 5.2 8.7 0.00 0.42 0.42 1006.4
20260506181204 0 322 2.6 6.1 0.00 0.42 0.42 1006.4
20260506180701 0 314 7.8 8.7 0.00 0.42 0.42 1006.4
20260506180156 0 310 4.3 7.8 0.00 0.42 0.42 1006.3
20260506175653 0 320 6.1 8.7 0.00 0.42 0.42 1006.3
20260506175150 0 307 5.2 7.0 0.00 0.42 0.42 1006.3
20260506174648 0 320 5.2 7.8 0.07 0.42 0.42 1006.2
20260506174145 0 302 7.0 8.7 0.07 0.42 0.42 1006.1
20260506173643 0 299 5.2 7.8 0.00 0.41 0.41 1006.2
20260506173140 0 326 5.2 7.8 0.00 0.41 0.41 1006.1
20260506172636 0 342 3.5 5.2 0.00 0.41 0.41 1006.1
20260506172133 0 315 3.5 6.1 0.00 0.41 0.41 1006.1
20260506171631 0 297 5.2 5.2 0.00 0.41 0.41 1006.3
20260506171128 0 312 3.5 5.2 0.00 0.41 0.41 1006.0
20260506170626 0 305 4.3 5.2 0.00 0.41 0.41 1006.2
20260506170122 0 317 3.5 5.2 0.00 0.41 0.41 1006.1
20260506165621 0 285 3.5 5.2 0.00 0.41 0.41 1006.0
20260506165116 0 325 4.3 5.2 0.00 0.41 0.41 1006.0
20260506164614 0 305 3.5 5.2 0.00 0.41 0.41 1006.1
20260506164111 0 336 2.6 2.6 0.00 0.41 0.41 1006.0
20260506163607 0 314 3.5 5.2 0.00 0.41 0.41 1006.1
20260506163103 0 318 3.5 6.1 0.00 0.41 0.41 1006.1
20260506162559 0 312 7.0 7.8 0.00 0.41 0.41 1006.0
20260506162057 0 329 3.5 7.0 0.00 0.41 0.41 1006.0
20260506161554 0 323 5.2 7.0 0.00 0.41 0.41 1006.0
20260506161045 0 327 4.3 6.1 0.00 0.41 0.41 1006.2
20260506160543 0 304 3.5 5.2 0.00 0.41 0.41 1005.9
20260506160040 0 308 2.6 5.2 0.00 0.41 0.41 1006.2
20260506155538 0 319 5.2 6.1 0.00 0.41 0.41 1006.1
20260506153715 0 305 2.6 5.2 0.00 0.40 0.40 1006.1
20260506153212 0 323 5.2 6.1 0.00 0.40 0.40 1006.1
20260506152709 0 329 3.5 5.2 0.00 0.40 0.40 1006.1
20260506152206 0 301 1.7 2.6 0.07 0.40 0.40 1006.1
20260506151706 0 263 1.7 2.6 0.07 0.40 0.40 1006.1
20260506151201 0 254 0.0 0.9 0.00 0.39 0.39 1005.9
20260506150658 0 277 1.7 2.6 0.00 0.39 0.39 1006.0
20260506150155 0 313 4.3 5.2 0.05 0.39 0.39 1006.0
20260506145652 0 325 4.3 6.1 0.05 0.39 0.39 1006.0
20260506145149 0 288 5.2 6.1 0.00 0.38 0.38 1005.9
20260506144647 0 320 5.2 7.0 0.00 0.38 0.38 1005.7
20260506144143 0 298 3.5 5.2 0.00 0.38 0.38 1005.9
20260506143641 0 326 3.5 5.2 0.00 0.38 0.38 1005.9
20260506143139 0 321 5.2 6.1 0.07 0.38 0.38 1005.6
20260506142637 0 297 3.5 3.5 0.07 0.38 0.38 1005.7
20260506142135 0 326 2.6 5.2 0.00 0.37 0.37 1005.7
20260506141632 0 316 4.3 5.2 0.00 0.37 0.37 1005.6
20260506141130 0 319 4.3 5.2 0.05 0.37 0.37 1005.6
20260506140627 0 312 2.6 3.5 0.05 0.37 0.37 1005.7
20260506140124 0 319 3.5 5.2 0.00 0.36 0.36 1005.9
20260506135621 0 317 2.6 6.1 0.07 0.36 0.36 1005.7
20260506135117 0 326 4.3 5.2 0.07 0.36 0.36 1005.7
20260506134614 0 310 2.6 5.2 0.00 0.35 0.35 1005.7
20260506134110 0 313 2.6 6.1 0.07 0.35 0.35 1005.7
20260506133608 0 307 3.5 3.5 0.07 0.35 0.35 1005.9
20260506133104 0 306 1.7 2.6 0.05 0.34 0.34 1005.6
20260506132601 0 324 1.7 3.5 0.05 0.34 0.34 1005.7
20260506132058 0 302 1.7 1.7 0.07 0.33 0.33 1006.0
20260506131556 0 298 0.9 1.7 0.05 0.32 0.32 1006.0
20260506131052 0 306 0.9 1.7 0.12 0.32 0.32 1005.9
20260506130549 0 270 0.9 0.9 0.12 0.31 0.31 1006.0
20260506130047 0 262 0.0 0.0 0.07 0.29 0.29 1006.1
20260506125545 0 286 0.9 1.7 0.12 0.28 0.28 1006.1
20260506125042 0 321 1.7 2.6 0.17 0.28 0.28 1006.0
20260506124540 0 305 1.7 1.7 0.05 0.26 0.26 1006.1
20260506124037 0 284 1.7 1.7 0.07 0.25 0.25 1006.0
20260506123535 0 298 1.7 3.5 0.12 0.25 0.25 1005.9
20260506123033 0 313 2.6 3.5 0.05 0.24 0.24 1005.7
20260506122529 0 318 1.7 2.6 0.07 0.23 0.23 1005.6
20260506122028 0 309 2.6 2.6 0.14 0.23 0.23 1005.5
20260506121525 0 272 1.7 2.6 0.12 0.22 0.22 1005.9
20260506121021 0 273 2.6 3.5 0.12 0.21 0.21 1005.9
20260506120519 0 279 4.3 5.2 0.07 0.20 0.20 1005.9
20260506120016 0 329 3.5 3.5 0.05 0.19 0.19 1005.7
20260506115514 0 326 4.3 6.1 0.05 0.19 0.19 1005.7
20260506115012 0 321 3.5 5.2 0.07 0.18 0.18 1006.0
20260506114509 0 310 0.9 1.7 0.07 0.18 0.18 1005.6
20260506114008 0 320 0.9 1.7 0.00 0.17 0.17 1005.7
20260506113505 0 314 0.0 1.7 0.05 0.17 0.17 1005.7
20260506113002 0 146 0.0 0.0 0.05 0.17 0.17 1005.6
20260506112459 0 181 0.0 0.9 0.07 0.16 0.16 1005.9
20260506111956 0 150 0.0 0.0 0.12 0.16 0.16 1005.6
20260506111454 0 66 0.9 1.7 0.12 0.15 0.15 1005.7
20260506110951 0 44 0.9 0.9 0.07 0.14 0.14 1005.9
20260506110449 0 100 0.0 0.0 0.05 0.13 0.13 1006.0
20260506105945 0 100 0.0 0.0 0.05 0.13 0.13 1006.0
20260506105441 0 100 0.9 1.7 0.00 0.12 0.12 1005.9
20260506104939 0 193 0.0 1.7 0.07 0.12 0.12 1006.0
20260506104437 0 158 0.9 0.9 0.07 0.12 0.12 1006.1
20260506103935 0 215 0.9 1.7 0.07 0.11 0.11 1006.3
20260506103432 0 172 0.0 0.0 0.07 0.11 0.11 1005.9
20260506102928 0 147 0.0 0.0 0.05 0.10 0.10 1006.2
20260506102427 0 169 0.0 0.0 0.12 0.10 0.10 1006.1
20260506101924 0 157 0.0 0.0 0.12 0.09 0.09 1006.1
20260506101420 0 219 0.0 0.0 0.05 0.08 0.08 1006.0
20260506100917 0 246 0.0 0.0 0.00 0.07 0.07 1006.0
20260506100416 0 224 0.9 1.7 0.07 0.07 0.07 1006.3
20260506095913 0 261 0.9 1.7 0.00 0.06 0.06 1005.9
20260506095411 0 325 1.7 2.6 0.05 0.06 0.06 1006.1
20260506094907 0 285 1.7 1.7 0.05 0.06 0.06 1006.3
20260506094406 0 303 1.7 2.6 0.00 0.05 0.05 1006.4
20260506093903 0 340 1.7 3.5 0.00 0.05 0.05 1006.4
20260506093401 0 12 0.9 1.7 0.07 0.05 0.05 1006.5
20260506092859 0 283 5.2 6.1 0.07 0.05 0.05 1006.5
20260506092356 0 336 2.6 6.1 0.00 0.04 0.04 1006.8
20260506091852 0 340 1.7 5.2 0.05 0.04 0.04 1006.7
20260506091351 0 332 3.5 3.5 0.05 0.04 0.04 1006.5
20260506090848 0 307 1.7 2.6 0.00 0.03 0.03 1006.6
20260506090345 0 65 0.0 1.7 0.07 0.03 0.03 1006.2
20260506085842 0 209 0.0 0.9 0.07 0.03 0.03 1006.2
20260506085338 0 309 0.0 0.0 0.00 0.02 0.02 1006.5
20260506084835 0 309 0.0 0.9 0.05 0.02 0.02 1006.5
20260506084332 0 308 0.0 0.0 0.05 0.02 0.02 1006.6
20260506083828 0 305 0.9 0.9 0.05 0.02 0.02 1006.5
20260506083326 0 313 0.0 0.9 0.00 0.01 0.01 1006.5
20260506082823 0 304 0.0 0.0 0.00 0.01 0.01 1006.3
20260506082319 0 310 1.7 1.7 0.07 0.01 0.01 1006.5
20260506081816 0 291 1.7 2.6 0.07 0.01 0.01 1006.5
20260506081314 0 183 0.0 0.0 0.00 0.00 0.00 1006.3
20260506080811 0 183 0.0 0.9 0.00 0.00 0.00 1006.2
20260506080307 0 153 0.9 1.7 0.00 0.00 0.00 1006.0
20260506073251 0 240 1.7 1.7 0.00 0.00 0.00 1006.5
20260506072748 0 167 0.0 0.0 0.00 0.00 0.00 1006.2
20260506072246 0 166 0.0 0.0 0.00 0.00 0.00 1006.3
20260506071744 0 161 0.9 0.9 0.00 0.00 0.00 1006.3
20260506071241 0 148 0.0 0.9 0.00 0.00 0.00 1006.6
20260506070738 0 171 0.9 0.9 0.00 0.00 0.00 1006.4
20260506070235 0 139 0.0 0.0 0.00 0.00 0.00 1006.6
20260506062212 0 251 2.6 2.6 0.00 0.00 0.00 1007.4
20260506061708 0 115 0.9 1.7 0.00 0.00 0.00 1007.2
20260506061205 0 78 0.0 0.9 0.00 0.00 0.00 1007.4